Track STARLINK-2696 now! 10-day predictions STARLINK-2696 is classified as:
1 48484U 21040BJ 22180.26833980 -.00000298 00000-0 -11236-5 0 9996 2 48484 53.0556 139.7701 0001860 61.9188 298.1989 15.06383577 62953